Location: Putah Creek Observatory
(38.7021°N, 122.3865°W)
Time: 23:22:33
(UTC-07:00)

ISS - Pass Details

Date: 25 March 2019
Orbit: 408 x 410 km, 51.6° (Epoch: 21 April)

Event Time Altitude Azimuth Distance (km) Brightness Sun altitude
Rises 19:52:23 0° 252° (WSW) 2,327 1.4 -5.9°
Reaches altitude 10° 19:54:35 10° 263° (W) 1,469 0.6 -6.3°
Maximum altitude 19:57:36 32° 329° (NNW) 725 -2.1 -6.9°
Drops below altitude 10° 20:00:37 10° 35° (NE) 1,473 -1.2 -7.5°
Sets 20:02:50 0° 45° (NE) 2,336 -0.3 -7.9°
